Theta_e
319 318 316 317 319 322 323 323 322 322 321 317 314 311 310 310 310 310 315 314 314 312 311 313 314 314 315 318 318 319 323 326 325 322 320 318 318 319 318 319 321 322 327 335 339
319 318 317 316 317 319 321 322 321 321 319 316 313 311 310 309 311 312 314 316 311 312 313 313 314 315 316 318 318 319 324 325 322 320 319 318 317 317 316 319 322 324 334 339 337
318 318 317 316 316 317 320 321 321 318 317 314 311 310 309 308 312 312 312 312 310 310 310 314 315 315 316 317 318 319 323 319 317 317 318 318 315 315 315 318 317 322 333 338 336
316 319 317 317 316 317 318 320 320 317 317 314 311 310 308 313 312 313 311 311 309 309 312 313 314 315 315 316 316 317 316 317 316 316 318 316 316 317 317 317 317 318 329 336 334
315 319 318 317 316 316 317 319 318 315 313 315 311 309 310 312 313 312 310 310 308 310 312 313 314 315 316 315 314 315 314 315 315 316 318 317 317 317 316 314 315 320 328 333 334
315 319 317 317 316 316 317 318 318 313 313 313 310 308 314 311 310 310 313 309 310 312 312 313 314 314 314 315 314 316 314 314 315 315 316 317 316 316 316 313 314 319 326 329 333
313 317 318 317 316 316 317 318 318 314 311 311 309 309 311 312 311 312 312 312 312 312 313 313 314 314 314 312 312 314 313 313 314 314 314 314 314 314 313 313 313 316 320 327 329
313 316 317 317 316 317 317 317 317 313 311 312 310 312 311 310 311 312 312 311 311 312 312 313 312 314 314 311 312 314 315 315 313 313 312 314 319 315 310 310 311 313 314 318 325
314 317 317 317 317 317 317 317 315 311 310 309 312 313 311 308 311 311 312 311 311 311 311 311 312 314 313 312 312 312 314 315 313 313 313 313 317 312 311 310 310 310 311 317 319
313 316 317 317 317 317 316 316 313 312 313 312 311 310 309 310 311 311 312 311 311 312 312 313 313 314 312 312 312 313 312 313 313 312 313 312 313 311 310 310 310 310 309 311 315
314 316 316 317 317 316 315 313 315 315 312 310 311 309 309 311 310 311 311 311 312 312 312 312 312 312 312 312 312 313 312 313 312 312 313 313 313 312 310 310 310 310 308 308 310
314 315 316 317 316 316 312 313 311 311 312 312 312 310 310 310 311 311 311 312 312 311 312 313 313 313 313 312 313 312 312 313 311 311 313 312 312 312 311 311 310 310 310 309 309
313 314 316 316 316 315 312 312 310 310 311 313 312 310 311 311 310 311 310 312 312 311 311 312 312 313 313 313 312 312 313 311 313 312 312 312 312 312 311 311 311 310 311 311 309
314 315 316 316 315 315 313 311 310 309 311 312 312 311 312 312 311 311 310 312 312 311 311 312 311 311 313 313 312 312 311 312 312 311 310 310 307 311 310 310 310 310 309 309 309
313 314 316 315 315 315 313 312 310 310 314 310 311 310 311 312 310 310 309 310 312 312 311 311 311 312 313 313 311 312 310 311 313 313 311 310 308 307 310 310 309 309 308 308 308
314 315 315 315 315 314 312 312 311 315 316 311 311 312 313 312 311 309 310 309 310 311 311 310 309 311 312 310 311 310 311 311 312 310 310 309 308 308 309 309 309 308 308 309 309
312 313 315 314 315 313 312 312 313 315 312 312 311 311 311 312 312 310 310 309 310 311 310 310 310 308 309 310 310 311 310 311 310 310 312 309 309 309 311 310 309 308 309 309 308
314 313 315 314 314 314 312 312 316 313 313 311 311 311 310 311 311 311 310 309 309 309 310 310 311 308 308 311 311 310 310 313 313 314 310 308 308 310 311 308 309 310 309 308 308
314 315 314 314 313 313 311 313 312 312 312 312 311 312 310 310 311 311 309 310 309 308 309 310 311 309 309 310 310 310 311 311 311 306 313 310 309 310 311 310 309 311 309 308 307
315 315 314 313 312 312 312 313 312 311 312 311 312 311 311 311 311 312 311 310 310 309 308 310 312 311 309 309 310 310 309 310 312 310 313 308 310 309 311 310 308 310 309 308 307
313 316 313 312 311 311 313 312 311 311 312 311 311 311 311 311 310 311 310 310 310 309 308 309 314 312 309 310 310 309 310 310 310 312 314 313 307 309 309 309 308 307 309 308 306
305 313 312 311 310 310 311 311 311 311 312 312 312 311 311 310 310 310 310 309 309 309 309 310 314 313 311 312 312 310 310 309 310 310 308 312 309 309 309 312 308 308 309 307 306
300 302 310 309 310 310 311 312 311 312 313 311 313 313 311 311 311 310 310 310 309 309 309 310 314 313 312 311 312 312 309 309 308 310 309 308 309 310 308 311 311 308 308 306 305
299 305 301 310 310 311 311 312 312 312 314 313 312 313 313 311 311 310 313 310 310 309 310 309 315 311 310 309 310 311 310 309 310 311 310 310 308 310 310 311 311 309 307 305 304
296 302 299 309 311 311 311 311 313 314 313 313 314 314 313 313 312 313 313 313 310 311 310 310 308 310 308 310 311 308 309 309 309 309 309 309 309 309 308 309 308 308 307 305 305
301 301 298 307 309 311 312 312 313 313 313 314 315 314 312 314 312 313 311 313 311 311 310 311 309 309 306 310 311 311 312 310 309 309 309 309 307 308 307 308 308 309 308 307 306
293 293 299 307 310 311 311 313 313 313 314 313 314 314 313 313 312 312 311 312 312 311 311 310 308 309 305 310 310 310 309 311 310 309 308 308 309 308 307 308 308 308 307 307 306
Wind_Speed
34 32 30 29 29 28 24 21 17 20 19 15 15 15 14 14 11 8 8 5 11 2 6 7 5 4 3 3 3 3 2 4 4 9 7 9 5 2 2 7 4 5 5 21 27
34 34 31 31 29 29 28 26 23 19 19 19 16 14 13 10 8 15 8 13 8 11 5 9 5 8 0 2 2 2 2 4 2 5 8 11 11 6 5 9 5 8 13 25 24
29 34 32 30 29 30 28 28 26 22 21 18 16 14 13 11 6 7 22 16 13 10 9 9 9 5 1 3 3 4 3 3 7 5 12 9 8 8 8 6 9 12 11 17 19
27 36 34 31 29 29 30 28 26 26 18 18 17 16 15 9 6 1 14 20 14 12 7 4 2 7 2 3 5 3 4 5 3 4 7 9 7 4 4 3 5 12 16 18 15
28 34 34 32 28 28 28 27 28 26 21 18 18 17 11 4 3 1 9 20 16 16 13 7 6 4 7 5 0 3 3 5 7 1 6 5 7 5 6 8 6 13 16 13 17
26 30 33 31 29 28 27 25 27 29 22 17 17 17 4 9 2 2 5 18 16 16 13 11 6 6 2 4 6 1 6 6 4 4 3 6 4 3 7 10 8 6 10 10 14
32 27 32 31 29 27 26 24 25 26 28 19 17 15 4 6 6 5 8 14 14 14 9 14 11 7 5 1 2 3 6 5 4 5 2 1 2 6 7 7 9 8 8 10 12
34 31 28 31 29 27 25 23 22 25 26 24 16 5 4 7 6 7 8 10 12 8 3 11 3 2 2 5 2 4 4 4 5 4 2 0 4 8 9 9 9 10 9 8 10
39 35 37 32 32 29 24 21 21 22 22 23 20 9 5 4 7 11 13 12 13 7 2 7 5 3 2 4 3 5 3 6 3 6 4 5 4 5 6 7 7 8 9 9 7
38 38 38 38 35 33 28 23 21 22 19 14 7 1 4 5 8 13 12 18 7 10 4 4 4 4 4 5 6 5 4 7 6 7 2 5 6 5 6 7 8 7 8 8 9
44 40 43 41 40 39 36 26 7 5 11 7 11 1 8 10 12 10 11 14 8 6 6 6 5 8 9 8 9 2 9 6 5 3 3 6 6 7 9 7 7 7 8 8 9
48 43 45 43 45 44 41 10 17 7 10 3 2 9 4 2 5 9 13 7 7 8 8 3 8 9 9 10 7 3 8 5 4 4 1 6 10 7 8 7 9 9 8 8 8
48 46 49 46 44 41 34 20 19 27 6 3 1 11 3 4 6 12 8 4 10 11 12 8 7 10 9 5 6 5 5 5 3 4 3 3 6 9 8 7 8 8 6 3 11
51 49 49 50 35 33 27 20 22 4 4 7 6 5 5 4 3 11 11 2 6 15 10 7 5 13 7 7 6 6 5 8 9 6 3 5 5 7 9 11 8 9 8 7 6
50 49 52 56 27 25 36 18 15 2 7 15 7 11 8 6 11 4 1 1 7 8 8 5 7 10 6 7 7 3 7 7 5 3 3 3 1 6 7 7 9 10 10 8 9
50 51 54 41 29 31 32 21 8 3 5 8 10 10 8 7 4 5 5 0 2 3 4 3 4 5 5 3 7 7 7 7 1 2 3 7 6 5 5 8 7 6 9 10 8
54 52 53 37 18 42 36 11 4 6 9 10 10 14 18 9 7 8 15 8 6 7 6 3 3 2 1 8 4 5 8 3 1 2 5 5 5 11 3 2 4 9 9 8 8
51 53 51 30 41 44 29 14 6 15 18 8 13 15 15 17 5 8 15 13 10 8 9 7 3 7 5 5 9 8 7 5 7 4 4 4 7 6 1 6 5 6 9 9 8
49 44 35 27 46 40 15 13 12 18 16 12 20 19 11 13 9 7 14 18 15 11 5 7 4 5 3 1 11 6 9 3 7 3 3 5 6 6 4 4 4 6 8 8 8
37 34 24 43 49 25 16 16 10 14 17 17 10 13 20 23 10 15 16 14 12 17 8 2 6 3 2 3 2 4 6 2 1 5 5 5 5 6 4 8 7 8 9 8 8
19 7 27 51 45 11 20 20 16 9 21 15 7 9 14 18 16 14 15 7 19 17 9 1 6 1 4 6 8 3 5 5 5 5 5 1 6 6 11 11 12 10 9 8 8
2 5 35 53 12 13 16 17 12 4 10 6 5 6 16 19 13 14 13 14 15 15 16 3 5 4 4 2 2 4 6 10 5 4 2 4 8 2 4 2 10 11 13 10 9
3 1 20 47 10 18 10 17 12 8 7 15 6 5 7 14 11 13 11 1 14 17 18 9 3 3 4 3 3 4 5 5 6 3 6 6 11 2 7 6 4 9 9 8 9
2 4 2 9 6 18 14 23 16 10 8 7 7 7 5 13 6 15 7 1 5 13 9 13 3 10 14 6 8 6 9 10 6 4 16 11 20 2 4 6 5 8 9 9 9
0 1 2 14 13 19 18 24 17 12 9 11 8 14 10 7 16 6 10 3 5 4 6 8 8 7 10 3 4 7 11 13 13 21 10 23 16 23 7 10 10 7 8 10 11
0 1 2 8 13 23 22 25 28 18 19 19 9 14 13 7 11 7 17 5 5 2 11 6 2 4 2 5 4 3 8 17 21 22 17 18 13 14 7 8 9 14 16 14 12
1 2 2 7 13 16 22 24 30 18 6 18 10 13 15 6 8 4 7 9 12 13 11 9 6 4 4 5 6 4 25 9 12 19 14 18 29 13 14 8 9 9 11 14 15
Wind_Direction
211 211 213 206 204 195 193 196 192 201 194 203 208 194 198 204 205 207 224 200 213 235 182 155 166 112 44 284 319 322 304 229 245 147 124 144 110 316 34 119 111 51 42 131 145
214 207 211 210 206 201 191 193 193 197 191 207 201 191 189 190 200 226 221 210 204 192 148 164 193 128 183 244 225 239 244 243 151 47 141 162 139 128 164 130 111 91 91 114 140
225 209 206 211 204 204 193 188 191 189 193 193 192 187 176 163 216 231 215 211 203 193 188 225 228 104 182 245 230 234 264 107 36 23 129 164 125 168 145 175 169 154 146 133 149
227 211 205 203 203 201 198 190 186 187 196 189 184 179 166 165 198 270 188 204 196 193 173 183 211 134 186 236 236 289 360 5 74 344 129 147 108 166 191 99 60 148 151 145 160
225 212 202 199 199 196 194 192 187 179 189 191 178 168 150 201 261 135 179 184 176 173 187 174 167 169 165 216 67 242 108 34 73 352 102 124 138 181 138 110 68 113 146 157 161
216 213 197 198 191 193 192 192 188 179 176 185 172 166 208 210 189 172 166 167 174 170 198 195 175 212 292 237 208 258 106 109 153 80 44 138 113 67 218 134 119 140 152 162 172
203 214 193 193 189 187 187 187 188 174 175 182 168 169 251 198 135 180 156 173 167 180 182 205 230 165 196 73 104 142 116 132 132 167 156 326 135 220 133 130 157 180 178 170 183
209 202 189 191 186 178 180 180 185 166 167 173 174 179 245 191 163 167 151 149 160 186 207 193 157 335 340 129 94 178 159 157 164 144 290 189 236 201 157 156 185 187 190 188 188
209 196 181 191 181 170 169 170 167 157 150 147 151 218 217 160 156 175 181 157 146 139 113 133 160 153 165 176 136 236 197 199 176 198 142 202 238 112 143 168 215 192 195 174 203
199 197 182 180 177 161 156 152 147 138 137 144 145 150 190 205 143 158 186 158 141 134 122 172 147 164 216 200 198 152 235 196 154 198 193 197 256 174 179 186 211 219 200 180 186
195 191 182 179 169 155 141 134 151 130 189 168 169 94 129 103 129 168 173 182 120 152 159 215 172 195 193 213 252 168 196 217 96 36 188 226 246 229 185 186 221 235 202 195 181
195 191 182 179 168 158 152 177 180 169 155 71 64 182 82 196 132 160 176 174 146 162 154 157 213 189 205 211 239 285 199 165 63 78 59 223 248 241 249 204 191 208 213 200 162
192 189 183 173 166 157 166 188 185 138 133 124 327 168 165 203 165 175 189 181 168 173 182 165 175 219 209 180 162 234 222 149 145 132 268 345 279 240 232 227 189 212 225 158 167
186 184 179 168 158 166 175 189 172 188 107 156 191 198 138 215 154 143 213 174 191 187 176 212 180 198 152 169 174 204 82 100 122 147 220 168 275 234 200 203 201 194 205 184 150
181 183 178 172 162 174 172 193 180 313 151 151 160 148 155 190 131 231 145 50 186 165 143 183 148 143 162 172 180 217 133 128 138 234 37 224 314 263 168 201 212 212 200 192 165
184 184 177 174 162 168 160 180 142 139 182 182 142 163 149 197 144 117 148 167 283 102 61 87 314 138 164 93 165 134 91 81 113 184 281 211 196 256 184 201 210 195 180 164 140
185 183 179 176 161 158 161 121 101 200 165 163 175 165 179 163 135 181 177 176 158 137 171 115 101 55 46 93 99 128 137 102 204 217 218 331 227 233 273 285 195 177 155 146 144
182 184 178 176 159 158 149 164 191 184 181 145 157 153 179 152 155 192 167 187 224 208 147 165 182 158 191 175 165 186 174 154 179 195 215 345 238 245 91 52 67 135 150 137 141
182 175 169 176 157 161 153 182 197 170 176 152 140 159 176 168 138 178 193 193 193 206 186 160 97 41 114 85 145 199 215 103 101 18 59 215 271 290 168 191 175 155 139 157 160
173 172 176 161 163 168 170 195 189 157 150 144 155 183 181 174 146 180 184 196 199 207 217 27 100 29 351 344 341 173 147 116 313 137 234 251 246 230 245 242 207 198 182 178 170
182 170 156 157 158 179 194 187 180 174 156 166 162 173 181 175 178 188 185 164 192 189 194 280 102 75 136 223 169 158 191 210 161 186 182 217 255 208 210 205 194 196 183 186 168
13 153 156 149 158 193 195 186 196 155 162 191 140 144 177 169 184 188 200 184 181 164 190 153 97 147 192 339 37 252 205 195 158 245 185 145 259 128 92 77 175 181 175 169 161
81 336 176 155 168 187 158 198 207 161 182 185 154 132 158 168 189 191 187 152 167 168 172 171 172 84 10 320 158 212 208 227 243 71 199 147 259 9 52 47 126 151 157 150 151
115 145 310 175 186 169 167 190 199 162 167 184 168 121 144 173 185 194 147 144 164 164 126 150 136 194 200 196 137 191 199 200 182 166 231 218 255 142 177 174 164 156 154 156 160
16 141 264 175 187 176 174 184 188 173 173 168 191 183 162 161 189 175 160 103 39 113 126 150 201 194 236 123 133 187 186 205 203 228 195 240 238 254 178 196 201 159 152 169 183
0 95 57 170 161 178 178 185 188 191 175 188 164 182 194 159 180 164 177 141 164 83 173 177 221 168 325 190 144 172 212 210 215 229 230 247 255 260 212 172 162 184 184 192 197
114 71 321 170 168 176 191 181 189 174 183 183 170 172 195 174 158 184 171 145 146 155 176 168 137 127 242 134 94 317 227 193 217 224 210 230 243 245 254 188 189 194 192 200 196